Regional Weather Roundup
Issued by NWS

Home | Current Version | Previous Version | Text Only | Print | Product List | Glossary On
Versions: 1 2 3 4 5 6 7 8 9 10 11 12 13 14 15 16 17 18 19 20 21 22 23 24 25 26 27 28 29 30 31 32 33 34 35 36 37 38 39 40 41 42 43 44 45 46 47 48 49 50
000
ASUS43 KDTX 290401
RWRMI
MICHIGAN HOURLY REGIONAL WEATHER ROUNDUP
NATIONAL WEATHER SERVICE DETROIT/PONTIAC MI
1200 AM EDT FRI MAY 29 2015

NOTE: "FAIR" INDICATES FEW OR NO CLOUDS BELOW 12,000 FEET WITH NO
SIGNIFICANT WEATHER AND/OR OBSTRUCTION TO VISIBILITY.

MIZ047>049-052>055-059>063-066>070-074>076-081>083-290500-
SOUTHEAST LOWER MICHIGAN

CITY           SKY/WX    TMP DP  RH WIND       PRES   REMARKS
ADRIAN         MOCLDY    63  56  78 E7        30.20F
ALMA           CLEAR     65  56  73 SE5       30.16F
ANN ARBOR      CLEAR     62  53  72 SE3       30.20F
BAD AXE        CLEAR     64  53  67 S6        30.21S
CARO           CLEAR     61  54  78 SE3       30.19F
DETROIT CITY   CLEAR     64  49  57 SE5       30.21F
DETROIT        PTCLDY    66  50  56 E5        30.21F
FLINT          CLEAR     64  52  64 SE8       30.19F
GROSSE ILE     CLEAR     63  54  72 E3        30.19F
HILLSDALE      PTCLDY    65  53  63 E8        30.19F
HOWELL         CLEAR     61  51  69 SE8       30.19F

CITY           SKY/WX    TMP DP  RH WIND       PRES   REMARKS
JACKSON        CLEAR     65  51  60 SE9       30.18F
LAMBERTVILLE   CLEAR     64  55  72 E5        30.20F
LANSING        CLEAR     67  54  63 SE9       30.18S
LAPEER         FAIR      64  48  57 S6        30.20F
MASON          CLEAR     62  52  71 SE7       30.18F
MONROE         CLEAR     64  55  72 E6        30.19F
MT. CLEMENS    CLEAR     61  54  76 SE7       30.19F
PONTIAC        PTCLDY    66  50  56 SE8       30.20F
PORT HOPE        N/A     68  56  65 S7        30.18S
PORT HURON     CLEAR     55  54  94 CALM      30.21F
TRI CITIES     CLEAR     69  56  62 SE7       30.18F
MIDLAND        FAIR      71  55  56 S6        30.16S
TROY           CLEAR     67  50  54 CALM      30.23S
SAGINAW HB     CLEAR     64  54  68 SE6       30.18S
$$
MIZ043>046-050>051-056>058-064>065-071>073-077>080-290500-
SOUTHWEST LOWER MICHIGAN

CITY           SKY/WX    TMP DP  RH WIND       PRES   REMARKS
BATTLE CREEK   CLEAR     69  54  58 SE9       30.16F
BENTON HARBOR  PTCLDY    67  55  65 E8        30.10F
BIG RAPIDS     CLEAR     62  58  86 CALM      30.14S
COLDWATER      CLEAR     65  51  60 SE6       30.16F
FREMONT        FAIR      63  60  91 E5        30.12F
HOLLAND        CLEAR     68  55  63 SE8       30.12F
GRAND RAPIDS   CLEAR     67  57  70 SE9       30.14F
IONIA          FAIR      66  55  68 SE8       30.15S
KALAMAZOO      CLEAR     68  55  63 VRB5      30.15F
LUDINGTON      CLEAR     61  57  88 CALM      30.11F
MARSHALL       CLEAR     65  53  63 SE7       30.16F
MOUNT PLEASANT CLEAR     68  56  63 SE3       30.16S
MUSKEGON       CLEAR     66  59  78 SE7       30.11F
SOUTH HAVEN    PTCLDY    66  56  68 SE6       30.11F
$$
MIZ016>042-290500-
NORTHERN LOWER MICHIGAN

CITY           SKY/WX    TMP DP  RH WIND       PRES   REMARKS
ALPENA         CLEAR     57  52  83 CALM      30.15F
BEAVER ISLAND  PTCLDY    53  52  97 E3        30.12S
BELLAIRE       CLEAR     60  58  94 CALM      30.12F FOG
CADILLAC       CLEAR     60  57  91 CALM      30.14F
CHARLEVOIX     PTCLDY    61  57  87 SE6       30.15S
FRANKFORT      CLEAR     59  52  77 CALM      30.10F
GAYLORD        CLEAR     65  62  90 CALM      30.15F
GRAYLING       CLEAR     59  57  94 CALM      30.16S
HARBOR SPRINGS PTCLDY    57  55  91 CALM      30.13S
HOUGHTON LAKE  CLEAR     65  59  81 SE5       30.16F
MANISTEE       CLEAR     57  54  88 E6        30.11F
OSCODA         CLEAR     67  59  76 S6        30.16S
PELLSTON       PTCLDY    60  56  86 N3        30.13F
ROGERS CITY    PTCLDY    64  56  77 CALM      30.14S
TRAVERSE CITY  CLEAR     58  54  86 CALM      30.11F
$$
MIZ007>008-015-290500-
EASTERN UPPER MICHIGAN

CITY           SKY/WX    TMP DP  RH WIND       PRES   REMARKS
KINROSS        PTCLDY    55  52  88 SE7       30.14F
MACKINAC ISLAN PTCLDY    44  43  96 E7        30.14S
NEWBERRY       CLEAR     55  53  94 S5        30.11S
S. S. MARIE    CLEAR     56  50  80 SE6       30.15S
$$
MIZ004>006-011>014-085-290500-
CENTRAL UPPER MICHIGAN

CITY           SKY/WX    TMP DP  RH WIND       PRES   REMARKS
MANISTIQUE     PTCLDY    52  49  90 S8        30.10S
ESCANABA       PTCLDY    55  50  82 CALM      30.05F
MENOMINEE      CLEAR     64  50  59 SW8       30.05S
SAWYER-GWINN   PTCLDY    60  54  80 S9        30.05F
$$
MIZ001>003-009>011-084-290500-
WESTERN UPPER MICHIGAN

CITY           SKY/WX    TMP DP  RH WIND       PRES   REMARKS
IRON MOUNTAIN  CLEAR     64  61  90 SE6       30.04R
HOUGHTON       PTCLDY    49  46  90 CALM      29.97S
COPPER HARBOR    N/A     54  50  86 SW8       29.95F
IRONWOOD       PTCLDY    70  54  56 S5        29.95S
$$

ABBREVIATIONS USED IN REMARKS
   TC - TEMPERATURE IN CELSIUS
  WCI - WIND CHILL INDEX
   HX - HEAT INDEX
  VSB - VISIBILITY



USA.gov is the U.S. government's official web portal to all federal, state and local government web resources and services.